Location: Bonham
(33.5773°N, 96.1783°W)
Time: 15:45:38
(UTC+00:00)

Chandra Rocket (1) - Pass Details

Date: 24 November 2025
Orbit: 253 x 10534 km, 28.5° (Epoch: 12 December)

Event Time Altitude Azimuth Distance (km) Brightness Sun altitude
Exits shadow 10:29:24 30° 155° (SSE) 1,367 3.9 -32.1°
Drops below altitude 10° 10:35:23 10° 119° (ESE) 3,786 6.8 -30.8°
Sets 10:41:36 0° 113° (ESE) 6,305 8.3 -29.5°
